Weather History for Phoenix, AZ

Change the Weather History Date:

Friday, April 12, 2013

  Actual Average Record
Temperature  
Mean Temperature 75 °F 72 °F  
Max Temperature 89 °F 84 °F 99 °F (1936)
Min Temperature 60 °F 59 °F 40 °F (1967)
Degree Days  
Heating Degree Days 0 1  
Month to date heating degree days 0 12  
Since 1 July heating degree days 881 926  
Cooling Degree Days 10 7  
Month to date cooling degree days 96 73  
Year to date cooling degree days 284 177  
Growing Degree Days 24 (Base 50)    
Moisture  
Dew Point 26 °F    
Average Humidity 22    
Maximum Humidity 36    
Minimum Humidity 8    
Precipitation  
Precipitation 0.00 in 0.01 in 0.27 in (1910)
Month to date precipitation 0.06 0.18  
Year to date precipitation 2.61 3.00  
Snow  
Snow 0.00 in - - ()
Month to date snowfall 0.0  
Year to date snowfall 0.0  
Since 1 July snowfall 0.0  
Snow Depth 0.00 in    
Sea Level Pressure  
Sea Level Pressure 29.71 in    
Wind  
Wind Speed 5 mph (SE)    
Max Wind Speed 13 mph    
Max Gust Speed 16 mph    
Visibility 10 miles    
Events      
T = Trace of Precipitation, MM = Missing Value Source: NWS Daily Summary

Daily Weather History Graph

Daily Weather History Graph

Search for Another Location

Airport:

Trip Planner

Search our weather history database for the weather conditions in past years. The results will help you decide how hot, cold, wet, or windy it might be!

Date:

Astronomy

Apr. 12, 2013 Rise Set
Actual Time 6:01 AM MST 6:56 PM MST
Civil Twilight 5:35 AM MST 7:22 PM MST
Nautical Twilight 5:05 AM MST 7:52 PM MST
Astronomical Twilight 4:34 AM MST 8:23 PM MST
Moon 7:19 AM MST (4/12) 9:23 PM MST (4/12)
Length of Visible Light 13h 46m
Length of Day
12h 55m
Waxing Crescent, 6% of the Moon is Illuminated
Apr 12
Waxing Crescent
Apr 18
First Quarter
Apr 25
Full
May 2
Last Quarter
May 9
New

Hourly Weather History & Observations

Time (MST) Temp. Dew Point Humidity Pressure Visibility Wind Dir Wind Speed Gust Speed Precip Events Conditions
12:51 AM 68.0 °F 28.9 °F 23% 29.71 in 10.0 mi SE 4.6 mph - N/A   Scattered Clouds
1:51 AM 68.0 °F 28.9 °F 23% 29.71 in 10.0 mi ENE 3.5 mph - N/A   Scattered Clouds
2:51 AM 66.0 °F 30.0 °F 26% 29.70 in 10.0 mi Calm Calm - N/A   Scattered Clouds
3:51 AM 64.0 °F 30.9 °F 29% 29.70 in 10.0 mi East 4.6 mph - N/A   Partly Cloudy
4:51 AM 61.0 °F 33.1 °F 35% 29.71 in 10.0 mi SE 4.6 mph - N/A   Scattered Clouds
5:51 AM 60.1 °F 33.1 °F 36% 29.72 in 10.0 mi ESE 3.5 mph - N/A   Scattered Clouds
6:51 AM 62.1 °F 32.0 °F 32% 29.73 in 10.0 mi East 6.9 mph - N/A   Scattered Clouds
7:51 AM 66.9 °F 33.1 °F 28% 29.75 in 10.0 mi ESE 6.9 mph - N/A   Scattered Clouds
8:51 AM 72.0 °F 32.0 °F 23% 29.75 in 10.0 mi SE 8.1 mph - N/A   Scattered Clouds
9:51 AM 77.0 °F 30.0 °F 18% 29.75 in 10.0 mi ESE 9.2 mph - N/A   Mostly Cloudy
10:51 AM 80.1 °F 28.0 °F 15% 29.75 in 10.0 mi East 6.9 mph - N/A   Mostly Cloudy
11:51 AM 81.0 °F 27.0 °F 14% 29.74 in 10.0 mi Calm Calm - N/A   Mostly Cloudy
12:51 PM 82.9 °F 24.1 °F 12% 29.72 in 10.0 mi Variable 3.5 mph - N/A   Mostly Cloudy
1:51 PM 84.9 °F 21.0 °F 10% 29.70 in 10.0 mi Calm Calm - N/A   Mostly Cloudy
2:51 PM 86.0 °F 21.0 °F 9% 29.68 in 10.0 mi SSW 9.2 mph - N/A   Mostly Cloudy
3:51 PM 86.0 °F 19.0 °F 8% 29.67 in 10.0 mi SW 8.1 mph - N/A   Mostly Cloudy
4:51 PM 86.0 °F 19.0 °F 8% 29.65 in 10.0 mi West 4.6 mph - N/A   Mostly Cloudy
5:51 PM 86.0 °F 19.9 °F 9% 29.65 in 10.0 mi SSE 9.2 mph - N/A   Mostly Cloudy
6:51 PM 82.9 °F 19.9 °F 10% 29.66 in 10.0 mi South 9.2 mph - N/A   Scattered Clouds
7:51 PM 80.1 °F 19.9 °F 11% 29.68 in 10.0 mi South 4.6 mph - N/A   Partly Cloudy
8:51 PM 78.1 °F 21.0 °F 12% 29.70 in 10.0 mi SE 4.6 mph - N/A   Partly Cloudy
9:51 PM 77.0 °F 21.0 °F 12% 29.72 in 10.0 mi ESE 3.5 mph - N/A   Partly Cloudy
10:51 PM 73.9 °F 24.1 °F 16% 29.73 in 10.0 mi ENE 4.6 mph - N/A   Partly Cloudy
11:51 PM 71.1 °F 28.9 °F 21% 29.73 in 10.0 mi East 5.8 mph - N/A   Clear